Location: Raleigh
(35.7720°N, 78.6390°W)
Time: 00:26:09
(UTC-04:00)

Amateur Radio Satellites - All Passes

Search period start: 30 April 2017 23:56
Search period end: 01 May 2017 23:56
Location: Raleigh, 35.7720°N, 78.6390°W

Satellite Date Start Highest point End Downlink Frequencies (MHz)
Time Altitude Azimuth
UNISAT 6 01 May 00:06:25 00:10:03 27° 289° (WNW) 00:13:45 437.425
SPROUT 01 May 00:10:37 00:14:11 26° 70° (ENE) 00:17:45 437.525
DUCHIFAT 1 01 May 00:14:01 00:16:41 16° 94° (E) 00:19:21 145.980
EO-79 01 May 00:17:09 00:20:28 22° 96° (E) 00:23:47 145.935-145.965
DX 1 01 May 00:21:29 00:23:50 14° 66° (ENE) 00:26:12 434.975-435.025
PCSat 01 May 00:42:49 00:46:42 20° 105° (ESE) 00:50:35 145.827
BUGSAT 1 01 May 00:56:59 00:59:17 15° 94° (E) 01:01:34 437.445
POLYITAN 1 01 May 00:57:08 01:01:20 72° 102° (ESE) 01:05:32 437.675
QB50P2 01 May 01:04:02 01:08:15 85° 286° (WNW) 01:12:28 145.880/145.840
UKube-1 01 May 01:12:53 01:16:51 37° 72° (ENE) 01:20:50 .
VELOX 1 01 May 01:19:13 01:23:27 43° 261° (W) 01:27:43 145.980
NANOSAT C BR1 01 May 01:21:11 01:25:18 64° 285° (WNW) 01:29:27 145.865
AIST 2D 01 May 01:27:49 01:30:12 17° 289° (WNW) 01:32:34 435.315
50 SAT 01 May 01:30:12 01:33:32 45° 260° (W) 01:36:56 437.505
SPROUT 01 May 01:46:43 01:50:01 22° 265° (W) 01:53:20 437.525
DUCHIFAT 1 01 May 01:48:39 01:52:24 33° 288° (WNW) 01:56:09 145.980
Oscar 19 01 May 01:50:35 01:54:39 23° 95° (E) 01:58:40 437.125/150
EO-79 01 May 01:52:43 01:56:08 25° 290° (WNW) 01:59:33 145.935-145.965
DX 1 01 May 01:55:24 01:59:36 45° 261° (W) 02:03:49 434.975-435.025
NO-84 01 May 02:11:21 02:14:15 71° 48° (NE) 02:17:03 435.350 FM
BEESAT 01 May 02:20:09 02:23:07 17° 66° (ENE) 02:26:05 436.000
PCSat 01 May 02:24:29 02:29:41 47° 301° (WNW) 02:34:55 145.827
Gurwin Techsat 1B 01 May 02:29:56 02:34:40 32° 97° (E) 02:39:22 435.225
BUGSAT 1 01 May 02:31:05 02:34:43 33° 288° (WNW) 02:38:20 437.445
UKube-1 01 May 02:50:16 02:52:57 16° 266° (W) 02:55:39 .
YUBILEINY 01 May 02:51:29 02:55:31 14° 78° (ENE) 02:59:32 435.215
ITUPSAT 1 01 May 03:02:15 03:06:46 45° 72° (ENE) 03:11:17 437.325
MOZHAYETS 4 01 May 03:07:27 03:11:01 23° 69° (ENE) 03:14:36
ITAMSAT 1 01 May 03:27:48 03:30:45 15° 93° (E) 03:33:42 435.822/435.867
Oscar 19 01 May 03:29:15 03:34:00 37° 290° (WNW) 03:38:44 437.125/150
AO-7 01 May 03:50:56 03:57:57 30° 97° (E) 04:04:57 .
BEESAT 01 May 03:55:57 04:00:29 45° 260° (W) 04:05:03 436.000
Gurwin Techsat 1B 01 May 04:10:01 04:14:27 28° 292° (WNW) 04:18:52 435.225
CUBESAT XI-V 01 May 04:11:46 04:15:03 19° 68° (ENE) 04:18:23 437.345
KKS-1 01 May 04:20:50 04:24:28 25° 69° (ENE) 04:28:05 437.445
STARS 01 May 04:39:38 04:42:26 17° 67° (ENE) 04:45:12 437.465
ITUPSAT 1 01 May 04:41:56 04:44:46 16° 267° (W) 04:47:37 437.325
YUBILEINY 01 May 04:42:14 04:50:56 87° 93° (E) 04:59:40 435.215
MOZHAYETS 4 01 May 04:44:05 04:48:00 28° 264° (W) 04:51:56
SO-50 01 May 04:54:06 04:57:53 25° 112° (ESE) 05:01:40 436.795
ITAMSAT 1 01 May 05:05:27 05:10:29 54° 287° (WNW) 05:15:31 435.822/435.867
AO-7 01 May 05:42:56 05:50:57 55° 293° (WNW) 05:59:00 .
CUBESAT XI-V 01 May 05:47:51 05:52:07 36° 262° (W) 05:56:27 437.345
KKS-1 01 May 05:57:09 06:00:53 26° 263° (W) 06:04:38 437.445
ISS 01 May 06:01:21 06:03:48 20° 130° (SE) 06:06:16 437.550
DOVE 4 01 May 06:06:17 06:08:50 15° 92° (E) 06:11:19 437.250
STARS 01 May 06:14:19 06:18:25 38° 261° (W) 06:22:33 437.465
RS-15 01 May 06:25:58 06:37:19 53° 109° (ESE) 06:49:01 29.354- 29.394
NUDT-PHONESAT 01 May 06:27:06 06:27:30 10° 92° (E) 06:27:53 437.300
XW-2F 01 May 06:29:17 06:31:30 15° 94° (E) 06:33:42 145.980 - 146.000
SO-50 01 May 06:34:08 06:38:13 30° 307° (NW) 06:42:16 436.795
Tancredo 1 01 May 06:36:13 06:39:17 75° 137° (SE) 06:42:22 437.200
YUBILEINY 01 May 06:43:42 06:48:50 17° 294° (WNW) 06:54:01 435.215
STRAND 1 01 May 06:46:56 06:50:23 19° 65° (ENE) 06:53:49 437.568
CUTE-I 01 May 06:49:18 06:53:49 28° 96° (E) 06:58:18 437.470
M-CUBED/EXP-1 PRIME 01 May 07:11:10 07:15:13 31° 66° (ENE) 07:19:18 437.505
XW-2D 01 May 07:21:01 07:24:52 81° 104° (ESE) 07:28:41 145.860 - 145.880
HO-68 01 May 07:21:01 07:25:09 16° 92° (E) 07:29:13 435.675
KAITUO 1B 01 May 07:25:31 07:29:18 69° 101° (E) 07:33:04 145.475/437.950
XW-2B 01 May 07:28:06 07:31:56 85° 281° (W) 07:35:46 145.730 - 145.750
ISS 01 May 07:37:08 07:40:08 32° 324° (NW) 07:43:07 437.550
XW-2C 01 May 07:40:20 07:44:05 56° 285° (WNW) 07:47:51 145.795 - 145.815
AO-7 01 May 07:41:31 07:41:53 10° 313° (NW) 07:42:13 .
DOVE 4 01 May 07:42:38 07:46:43 37° 288° (WNW) 07:50:37 437.250
LilacSat-2 01 May 07:45:11 07:48:53 46° 285° (WNW) 07:52:35 437.200
NUDT-PHONESAT 01 May 07:58:02 08:01:34 41° 286° (WNW) 08:05:06 437.300
XW-2F 01 May 08:02:19 08:05:40 30° 287° (WNW) 08:09:02 145.980 - 146.000
Tancredo 1 01 May 08:13:55 08:15:29 13° 333° (NNW) 08:17:03 437.200
XW-2A 01 May 08:21:15 08:24:28 43° 99° (E) 08:27:42 145.665 - 145.685
STRAND 1 01 May 08:24:16 08:29:09 46° 261° (W) 08:34:04 437.568
CUTE-I 01 May 08:29:10 08:33:47 31° 291° (WNW) 08:38:25 437.470
UWE-3 01 May 08:38:07 08:41:02 18° 94° (E) 08:44:00 435.000/436.395/437.385
RS-15 01 May 08:38:28 08:49:56 47° 311° (NW) 09:01:45 29.354- 29.394
CUTE 1.7 + AOD 2 01 May 08:38:37 08:42:56 75° 102° (ESE) 08:47:12 437.475
M-CUBED/EXP-1 PRIME 01 May 08:45:45 08:49:33 25° 260° (W) 08:53:24 437.505
SEEDS 01 May 08:48:49 08:53:03 61° 101° (E) 08:57:15 437.485
CUBEBUG 2 01 May 09:01:07 09:05:17 59° 100° (E) 09:09:32 437.445
HO-68 01 May 09:06:16 09:13:29 80° 287° (WNW) 09:20:40 435.675
O/OREOS (USA 219) 01 May 09:10:04 09:13:58 28° 102° (ESE) 09:17:53 437.305
ZACube-1 01 May 09:21:07 09:24:58 32° 97° (E) 09:28:53 437.345
AO-73 01 May 09:24:53 09:28:43 32° 97° (E) 09:32:37 145.935
UNISAT 6 01 May 09:27:19 09:29:35 14° 67° (ENE) 09:31:51 437.425
Oscar 11 01 May 09:34:11 09:38:08 33° 97° (E) 09:42:03 .
PCSat 01 May 09:34:37 09:36:02 11° 44° (NE) 09:37:26 145.827
AAUSAT CUBESAT 2 01 May 09:41:17 09:45:27 67° 284° (WNW) 09:49:34 437.432
FO-29 01 May 10:00:29 10:05:53 34° 71° (ENE) 10:10:49 435.910
UWE-3 01 May 10:13:44 10:17:31 32° 288° (WNW) 10:21:22 435.000/436.395/437.385
SEEDS 01 May 10:27:51 10:28:09 10° 295° (WNW) 10:28:28 437.485
PRISM 01 May 10:28:58 10:33:04 62° 259° (W) 10:37:13 437.425
AO-85 01 May 10:35:42 10:37:34 13° 110° (ESE) 10:39:23 145.980
OBJECT BX 01 May 10:37:40 10:41:02 34° 98° (E) 10:44:24 145.990 - 145.960
TIGRISAT 01 May 10:38:40 10:43:02 89° 65° (ENE) 10:47:20 435.000
CUBEBUG 2 01 May 10:40:49 10:41:24 10° 294° (WNW) 10:41:59 437.445
O/OREOS (USA 219) 01 May 10:49:34 10:53:18 24° 298° (WNW) 10:57:04 437.305
HO-68 01 May 10:56:52 11:00:03 14° 304° (NW) 11:03:15 435.675
ZACube-1 01 May 10:58:00 11:01:00 19° 291° (WNW) 11:04:03 437.345
RS-15 01 May 10:59:20 11:06:51 18° 342° (NNW) 11:14:25 29.354- 29.394
AO-73 01 May 11:01:43 11:04:43 19° 291° (WNW) 11:07:46 145.935
UNISAT 6 01 May 11:01:46 11:05:55 43° 261° (W) 11:10:02 437.425
EO-79 01 May 11:08:18 11:10:02 12° 66° (ENE) 11:11:47 145.935-145.965
Oscar 11 01 May 11:10:58 11:13:59 19° 292° (WNW) 11:16:59 .
DELFI C3 01 May 11:13:31 11:17:26 54° 285° (WNW) 11:21:18 145.870
PCSat 01 May 11:14:54 11:20:21 75° 63° (ENE) 11:25:45 145.827
LO-87 01 May 11:25:09 11:27:17 15° 94° (E) 11:29:24 145.935 - 145.965
FO-29 01 May 11:45:37 11:50:56 29° 262° (W) 11:55:48 435.910
ESTCUBE 1 01 May 11:46:21 11:49:27 18° 94° (E) 11:52:31 437.505/2401.250
POLYITAN 1 01 May 11:46:49 11:50:38 35° 73° (ENE) 11:54:27 437.675
QB50P2 01 May 11:53:29 11:57:31 46° 74° (ENE) 12:01:33 145.880/145.840
AIST 2D 01 May 11:58:01 12:01:29 78° 260° (W) 12:04:57 435.315
NANOSAT C BR1 01 May 12:09:55 12:14:02 61° 75° (ENE) 12:18:11 145.865
OBJECT BX 01 May 12:12:46 12:14:23 13° 292° (WNW) 12:15:59 145.990 - 145.960
AO-85 01 May 12:13:23 12:17:35 49° 302° (WNW) 12:21:33 145.980
ISS 01 May 12:31:56 12:33:16 12° 24° (NNE) 12:34:36 437.550
DUCHIFAT 1 01 May 12:36:45 12:40:55 69° 259° (WSW) 12:45:05 145.980
EO-79 01 May 12:41:17 12:45:21 48° 260° (W) 12:49:26 145.935-145.965
BEESAT 3 01 May 12:49:58 12:53:53 77° 116° (ESE) 12:57:52 437.485
LO-87 01 May 12:57:47 13:00:42 24° 288° (WNW) 13:03:36 145.935 - 145.965
50 SAT 01 May 12:57:53 12:59:22 12° 94° (E) 13:00:50 437.505
PCSat 01 May 13:01:04 13:03:00 12° 258° (WSW) 13:04:57 145.827
BEESAT 2 01 May 13:01:22 13:04:55 33° 113° (ESE) 13:08:32 435.950
Tancredo 1 01 May 13:04:15 13:06:49 23° 33° (NNE) 13:09:21 437.200
Oscar 19 01 May 13:04:40 13:08:52 25° 67° (ENE) 13:13:03 437.125/150
VELOX 1 01 May 13:11:54 13:16:05 42° 99° (E) 13:20:14 145.980
BUGSAT 1 01 May 13:17:04 13:21:11 77° 257° (WSW) 13:25:17 437.445
RS-15 01 May 13:18:58 13:26:41 18° 20° (NNE) 13:34:14 29.354- 29.394
ESTCUBE 1 01 May 13:22:10 13:26:19 36° 288° (WNW) 13:30:27 437.505/2401.250
POLYITAN 1 01 May 13:23:56 13:26:29 16° 266° (W) 13:29:04 437.675
SO-50 01 May 13:28:59 13:30:54 12° 45° (NE) 13:32:49 436.795
QB50P2 01 May 13:31:55 13:33:31 12° 268° (W) 13:35:07 145.880/145.840
SPROUT 01 May 13:33:57 13:38:12 76° 102° (ESE) 13:42:26 437.525
DX 1 01 May 13:46:21 13:50:22 36° 99° (E) 13:54:20 434.975-435.025
Gurwin Techsat 1B 01 May 13:48:06 13:53:00 39° 71° (ENE) 13:57:55 435.225
ISS 01 May 14:06:58 14:10:13 78° 40° (NE) 14:13:28 437.550
50 SAT 01 May 14:29:18 14:32:20 28° 288° (WNW) 14:35:21 437.505
UKube-1 01 May 14:38:04 14:42:24 79° 284° (WNW) 14:46:40 .
BEESAT 2 01 May 14:39:56 14:42:45 19° 310° (NW) 14:45:38 435.950
Tancredo 1 01 May 14:39:59 14:42:40 27° 228° (SW) 14:45:19 437.200
ITAMSAT 1 01 May 14:42:57 14:46:31 19° 65° (ENE) 14:50:03 435.822/435.867
Oscar 19 01 May 14:43:20 14:47:58 33° 263° (W) 14:52:39 437.125/150
AO-7 01 May 14:47:05 14:54:11 33° 61° (ENE) 15:01:16 .
VELOX 1 01 May 14:49:33 14:52:09 16° 294° (WNW) 14:54:43 145.980
YUBILEINY 01 May 14:56:20 15:04:21 38° 75° (ENE) 15:12:21 435.215
ITUPSAT 1 01 May 15:06:57 15:09:34 14° 93° (E) 15:12:09 437.325
SO-50 01 May 15:07:22 15:11:52 76° 243° (WSW) 15:16:22 436.795
JUGNU 01 May 15:16:51 15:19:07 12° 169° (SSE) 15:21:22 437.505
DX 1 01 May 15:23:23 15:26:14 17° 293° (WNW) 15:29:04 434.975-435.025
Gurwin Techsat 1B 01 May 15:28:57 15:33:02 22° 265° (W) 15:37:07 435.225
RS-15 01 May 15:31:33 15:43:21 50° 50° (NE) 15:54:32 29.354- 29.394
BEESAT 01 May 15:58:33 16:03:15 55° 101° (E) 16:07:55 436.000
ITAMSAT 1 01 May 16:20:36 16:25:34 47° 260° (W) 16:30:34 435.822/435.867
AO-7 01 May 16:38:34 16:46:33 52° 258° (WSW) 16:54:35 .
MOZHAYETS 4 01 May 16:40:57 16:45:35 81° 101° (E) 16:50:13
ITUPSAT 1 01 May 16:42:59 16:47:37 50° 287° (WNW) 16:52:13 437.325
YUBILEINY 01 May 16:53:04 17:01:06 42° 272° (W) 17:09:09 435.215
JUGNU 01 May 17:03:48 17:07:20 16° 179° (S) 17:10:51 437.505
DOVE 4 01 May 17:08:27 17:11:29 16° 66° (ENE) 17:14:28 437.250
NO-84 01 May 17:25:39 17:29:18 34° 128° (SE) 17:32:43 435.350 FM
BEESAT 01 May 17:38:04 17:40:30 14° 296° (WNW) 17:42:57 436.000
RS-15 01 May 17:44:27 17:55:43 48° 252° (WSW) 18:06:30 29.354- 29.394
CUBESAT XI-V 01 May 17:46:41 17:51:24 68° 102° (ESE) 17:56:03 437.345
KKS-1 01 May 17:49:56 17:54:21 73° 102° (ESE) 17:58:45 437.445
XW-2D 01 May 17:59:53 18:02:54 24° 71° (ENE) 18:05:56 145.860 - 145.880
KAITUO 1B 01 May 18:03:27 18:06:09 20° 70° (ENE) 18:08:53 145.475/437.950
STARS 01 May 18:06:09 18:10:19 44° 100° (E) 18:14:27 437.465
XW-2B 01 May 18:06:46 18:09:58 28° 72° (ENE) 18:13:12 145.730 - 145.750
CUTE-I 01 May 18:08:12 18:13:00 35° 70° (ENE) 18:17:49 437.470
XW-2C 01 May 18:18:36 18:22:07 40° 74° (ENE) 18:25:39 145.795 - 145.815
LilacSat-2 01 May 18:23:49 18:27:28 51° 75° (ENE) 18:31:08 437.200
NUDT-PHONESAT 01 May 18:34:06 18:37:39 50° 76° (ENE) 18:41:13 437.300
SRMSAT 01 May 18:37:10 18:40:26 15° 172° (S) 18:43:43 437.500
XW-2F 01 May 18:39:37 18:43:19 78° 77° (ENE) 18:47:04 145.980 - 146.000
DOVE 4 01 May 18:43:26 18:48:39 59° 260° (W) 18:53:45 437.250
JUGNU 01 May 18:52:41 18:55:33 14° 189° (S) 18:58:26 437.505
NO-84 01 May 19:03:43 19:06:53 24° 321° (NW) 19:09:51 435.350 FM
O/OREOS (USA 219) 01 May 19:22:31 19:26:40 33° 64° (ENE) 19:30:46 437.305
CUBESAT XI-V 01 May 19:26:44 19:28:07 11° 296° (WNW) 19:29:30 437.345
CUTE 1.7 + AOD 2 01 May 19:28:21 19:32:11 35° 72° (ENE) 19:36:02 437.475
HO-68 01 May 19:31:16 19:38:13 58° 70° (ENE) 19:45:13 435.675
XW-2D 01 May 19:34:26 19:37:02 18° 265° (W) 19:39:38 145.860 - 145.880
UWE-3 01 May 19:35:02 19:35:30 10° 66° (ENE) 19:35:57 435.000/436.395/437.385
KAITUO 1B 01 May 19:37:11 19:40:01 21° 264° (W) 19:42:53 145.475/437.950
SEEDS 01 May 19:37:46 19:41:20 28° 71° (ENE) 19:44:57 437.485
XW-2B 01 May 19:41:57 19:44:10 15° 266° (W) 19:46:25 145.730 - 145.750
STARS 01 May 19:43:53 19:46:14 14° 294° (WNW) 19:48:36 437.465
CUTE-I 01 May 19:48:43 19:53:03 25° 264° (W) 19:57:24 437.470
XW-2C 01 May 19:55:58 19:56:29 10° 268° (W) 19:57:01 145.795 - 145.815
CUBEBUG 2 01 May 19:56:31 20:00:22 33° 73° (ENE) 20:04:09 437.445
ZACube-1 01 May 20:15:08 20:17:51 17° 69° (ENE) 20:20:35 437.345
AO-73 01 May 20:18:37 20:21:17 17° 68° (ENE) 20:23:58 145.935
XW-2A 01 May 20:22:12 20:25:19 36° 261° (W) 20:28:26 145.665 - 145.685
SRMSAT 01 May 20:25:11 20:28:51 17° 183° (S) 20:32:31 437.500
Oscar 11 01 May 20:26:52 20:29:49 18° 68° (ENE) 20:32:47 .
M-CUBED/EXP-1 PRIME 01 May 20:27:25 20:30:47 27° 101° (E) 20:33:55 437.505
AAUSAT CUBESAT 2 01 May 20:28:04 20:32:04 51° 75° (ENE) 20:36:08 437.432
STRAND 1 01 May 20:37:18 20:42:25 76° 103° (ESE) 20:47:32 437.568
AO-85 01 May 20:46:44 20:50:40 53° 58° (ENE) 20:54:47 145.980
O/OREOS (USA 219) 01 May 21:02:34 21:05:47 19° 260° (W) 21:08:58 437.305
CUTE 1.7 + AOD 2 01 May 21:05:28 21:08:05 16° 267° (W) 21:10:43 437.475
UWE-3 01 May 21:07:17 21:11:27 57° 259° (W) 21:15:34 435.000/436.395/437.385
BEESAT 3 01 May 21:10:06 21:12:59 19° 51° (NE) 21:15:50 437.485
SEEDS 01 May 21:13:57 21:17:00 20° 266° (W) 21:20:05 437.485
OBJECT BX 01 May 21:15:29 21:15:57 10° 67° (ENE) 21:16:25 145.990 - 145.960
HO-68 01 May 21:20:50 21:26:16 23° 266° (W) 21:31:45 435.675
BEESAT 2 01 May 21:23:40 21:24:30 10° 45° (NE) 21:25:20 435.950
CUBEBUG 2 01 May 21:34:13 21:37:02 17° 266° (W) 21:39:49 437.445
ZACube-1 01 May 21:50:09 21:53:53 31° 263° (W) 21:57:36 437.345
AO-73 01 May 21:53:32 21:57:15 32° 262° (W) 22:00:59 145.935
DELFI C3 01 May 21:55:34 21:59:26 52° 75° (ENE) 22:03:21 145.870
Oscar 11 01 May 22:01:49 22:05:41 32° 263° (W) 22:09:34 .
M-CUBED/EXP-1 PRIME 01 May 22:02:20 22:04:58 17° 298° (WNW) 22:07:29 437.505
AAUSAT CUBESAT 2 01 May 22:07:10 22:07:48 10° 269° (W) 22:08:26 437.432
PRISM 01 May 22:13:48 22:16:57 21° 96° (E) 22:20:04 437.425
SRMSAT 01 May 22:15:13 22:17:15 12° 193° (SSW) 22:19:16 437.500
STRAND 1 01 May 22:19:10 22:20:55 12° 298° (WNW) 22:22:39 437.568
AO-85 01 May 22:29:33 22:30:38 11° 251° (WSW) 22:31:43 145.980
TIGRISAT 01 May 22:33:22 22:36:45 22° 96° (E) 22:40:10 435.000
ESTCUBE 1 01 May 22:44:28 22:46:18 12° 65° (ENE) 22:48:07 437.505/2401.250
OBJECT BX 01 May 22:45:45 22:49:12 41° 261° (W) 22:52:40 145.990 - 145.960
BEESAT 3 01 May 22:47:01 22:50:38 33° 247° (WSW) 22:54:13 437.485
UNISAT 6 01 May 22:55:45 22:59:54 44° 99° (E) 23:04:07 437.425
FO-29 01 May 22:56:01 23:00:58 36° 99° (E) 23:06:20 435.910
BEESAT 2 01 May 22:58:42 23:02:46 75° 241° (WSW) 23:06:45 435.950
LO-87 01 May 23:30:01 23:33:38 76° 77° (ENE) 23:37:15 145.935 - 145.965
PRISM 01 May 23:48:44 23:52:09 25° 290° (WNW) 23:55:32 437.425
